Theta_e
300 301 303 304 304 305 307 306 306 305 305 308 309 308 308 311 311 317 318 318 319 318 315 325 330 335 341 348 347 348 353 365 363 364 366 354 358 358 356 356 355 355 353 351 349
301 302 304 304 303 304 306 306 307 308 308 308 308 308 310 312 318 319 321 319 317 318 317 329 332 336 341 345 347 350 355 366 357 360 355 350 357 365 357 357 356 357 352 350 349
301 303 304 305 303 305 306 306 306 306 306 307 307 307 313 315 324 326 321 319 316 315 321 333 334 337 340 343 346 349 352 354 355 356 354 364 359 363 357 358 355 359 354 351 349
304 306 307 306 303 306 307 307 307 306 306 306 307 312 312 319 332 325 318 317 314 319 320 334 336 339 341 343 343 349 348 347 349 352 355 356 359 363 358 357 353 354 352 351 350
307 307 308 307 304 307 307 307 307 307 307 307 309 314 317 327 324 322 325 318 322 322 324 338 337 339 342 341 342 344 347 347 347 347 354 354 358 361 356 348 345 353 352 351 350
308 308 308 308 305 309 307 307 308 311 311 313 314 312 318 328 318 320 323 330 325 321 327 338 338 338 338 338 337 340 342 343 345 344 353 352 357 356 358 350 356 354 352 351 350
307 308 308 308 306 309 307 307 309 310 311 310 311 316 328 325 319 318 321 327 326 324 326 335 336 337 336 335 333 333 336 336 341 343 355 351 356 358 357 356 355 355 353 351 351
307 307 308 308 306 309 307 308 309 310 311 315 316 323 332 317 317 317 321 326 328 328 324 330 333 332 334 333 329 330 331 336 335 340 346 353 357 360 357 360 356 355 354 354 352
307 307 307 308 307 308 307 309 309 309 313 315 325 327 330 316 317 317 320 326 328 326 328 331 333 333 330 333 330 329 327 331 334 337 341 352 357 361 355 354 358 355 355 354 353
307 307 307 308 307 307 309 312 314 312 322 323 323 324 322 318 316 317 317 322 327 330 332 331 330 330 330 331 332 329 327 327 332 335 338 346 352 355 347 349 352 356 354 355 353
306 306 307 308 307 308 309 316 323 327 322 321 320 320 317 317 316 318 319 322 328 332 331 332 332 332 331 329 330 327 327 326 326 330 334 341 350 352 348 346 353 355 353 353 353
306 306 307 307 307 309 310 318 316 316 317 318 316 316 315 316 318 320 323 326 328 331 330 328 332 331 328 328 329 330 329 327 328 327 331 335 342 352 350 351 349 349 355 353 353
306 307 307 306 307 310 316 317 316 316 318 319 316 316 316 316 317 317 321 325 327 326 330 330 327 327 328 328 328 329 328 327 327 328 328 332 338 357 352 352 355 351 355 351 355
306 307 307 305 312 316 318 316 316 315 319 319 316 316 315 315 316 316 317 320 325 326 326 329 329 328 326 326 327 327 327 326 327 327 327 329 332 354 363 361 358 357 355 352 353
306 307 307 303 311 319 317 316 315 316 320 317 316 315 316 315 317 316 316 318 319 322 325 326 324 326 327 327 327 327 327 327 326 327 327 327 330 331 349 355 354 352 355 353 350
307 308 305 313 313 317 315 316 316 318 319 316 316 315 315 315 316 316 316 317 319 319 321 322 323 325 325 325 326 326 326 326 327 327 328 326 328 333 341 360 350 348 354 353 352
309 307 308 312 318 316 315 318 320 320 320 317 316 316 316 317 316 315 316 317 317 318 318 317 319 322 326 327 325 326 326 326 329 329 328 326 326 331 333 352 354 348 349 353 355
310 308 313 314 315 315 316 321 323 323 320 317 316 316 316 318 317 317 316 317 317 318 318 319 321 318 320 325 327 325 327 329 331 329 328 327 329 329 329 330 351 346 349 346 352
310 315 315 317 316 315 319 323 324 321 319 319 318 318 319 318 316 317 317 317 318 319 319 319 318 320 322 320 324 327 328 327 328 329 330 329 329 329 329 329 331 348 346 349 350
312 318 318 316 317 317 321 323 321 319 318 319 320 320 320 320 318 318 318 318 318 318 318 318 319 319 320 322 322 323 324 327 329 332 334 330 334 332 332 331 330 333 346 351 352
315 321 318 316 317 320 323 323 321 318 317 318 319 319 320 320 319 319 319 318 317 317 317 316 317 317 318 321 321 323 326 326 327 330 332 333 332 334 336 332 331 330 335 350 349
320 322 317 317 322 321 322 319 312 317 317 317 317 317 318 317 318 318 318 319 317 317 317 317 318 318 317 318 320 322 324 324 332 333 333 332 332 333 336 332 330 330 332 340 347
323 321 317 318 322 321 318 317 316 315 316 316 316 317 316 317 317 317 317 316 316 316 316 317 318 319 318 317 318 317 318 321 322 326 335 332 331 332 334 333 331 331 332 336 346
322 322 321 318 318 319 318 316 316 313 315 314 314 315 315 316 316 315 315 314 315 315 316 315 316 319 320 319 319 319 317 319 320 325 326 332 331 331 334 337 336 334 334 334 342
320 318 317 319 317 316 317 317 316 316 314 313 315 313 313 315 315 314 314 315 315 315 315 315 316 315 316 318 318 318 318 317 319 323 326 325 331 332 334 335 339 338 336 340 341
318 320 317 316 316 315 314 315 314 313 314 315 313 312 312 314 313 315 313 313 314 315 316 317 318 317 317 317 317 318 317 316 317 319 323 325 327 329 331 333 335 337 339 345 347
316 316 318 315 316 317 315 314 313 312 314 312 312 312 313 312 312 312 312 312 313 314 316 317 320 320 320 316 317 318 318 316 316 318 319 322 324 326 324 329 333 335 332 337 344
Wind_Speed
27 27 28 29 28 26 24 19 15 12 12 13 15 16 15 12 8 7 11 4 12 12 12 12 17 21 21 18 17 20 8 8 5 4 4 20 7 17 12 16 10 7 21 28 37
28 28 29 29 29 27 22 17 15 13 13 14 17 14 12 10 10 18 14 12 9 11 13 18 18 19 16 18 16 15 9 7 5 10 7 4 13 14 13 17 8 11 25 37 37
27 29 31 31 30 28 22 19 17 17 16 15 15 12 8 4 9 1 9 15 12 15 18 21 20 19 18 16 18 19 14 15 12 11 21 16 21 11 12 16 14 23 25 28 30
28 28 30 31 31 28 23 21 21 20 18 15 11 8 5 5 2 8 3 8 12 14 19 21 18 19 18 20 17 20 18 16 11 6 2 7 11 12 17 5 8 17 24 26 25
28 29 31 31 31 28 22 21 22 18 14 9 8 5 2 7 6 5 2 7 11 15 22 19 20 18 18 17 19 19 17 20 8 6 11 5 8 12 9 14 13 19 24 27 23
28 30 31 32 32 28 21 21 19 14 10 7 6 5 5 11 3 1 2 9 13 21 21 23 16 17 15 18 18 15 18 20 13 12 6 10 10 17 11 24 18 23 21 22 25
29 30 31 31 30 27 18 21 16 11 13 9 6 7 12 10 2 5 6 10 17 21 19 23 22 16 16 15 15 16 20 14 18 17 12 8 5 7 15 24 26 24 21 22 20
30 31 31 31 29 24 17 22 12 10 9 5 3 6 8 2 5 5 7 8 11 18 24 21 20 15 17 12 19 14 19 18 17 19 17 17 13 13 14 3 21 23 23 24 22
30 32 32 31 29 20 18 18 11 9 8 7 5 10 7 4 7 2 7 10 12 17 21 18 14 16 12 16 14 16 16 22 21 20 20 16 5 8 7 10 17 20 23 22 22
31 32 32 31 26 18 18 19 15 12 8 9 16 10 10 5 4 2 5 8 11 15 9 11 10 14 14 15 16 16 18 19 18 18 20 20 11 12 13 8 20 22 19 21 24
32 32 32 30 22 15 22 8 4 6 11 13 2 10 2 2 5 4 6 11 12 11 14 17 12 16 19 21 21 21 19 18 17 20 20 21 14 15 15 13 8 14 20 22 24
32 32 31 28 19 12 16 7 8 7 9 10 8 9 3 6 5 6 8 10 11 13 16 13 20 18 19 21 21 23 21 20 15 19 20 17 15 17 10 5 17 25 22 22 23
32 30 31 26 17 12 10 6 9 8 6 14 10 11 5 7 11 10 7 12 11 16 18 20 15 22 21 19 20 19 21 19 17 12 20 18 17 19 13 15 14 30 23 23 23
31 30 29 22 10 8 4 6 8 3 5 14 10 4 5 7 7 5 4 10 10 16 18 19 20 22 20 22 19 20 19 20 20 15 14 14 14 21 25 25 19 13 24 24 23
30 31 22 9 16 8 8 9 8 5 5 12 10 4 1 11 8 9 1 9 13 13 9 15 20 19 23 16 20 20 19 16 18 18 19 22 16 17 23 21 10 17 20 25 25
32 24 14 6 10 8 9 10 7 6 5 6 5 7 9 9 6 4 6 8 9 9 14 15 18 16 18 20 17 16 20 18 16 16 16 21 19 15 16 21 21 14 23 22 26
30 10 7 11 9 9 11 8 6 9 9 8 5 4 9 7 7 5 9 12 9 10 14 16 18 18 17 14 20 19 15 12 15 15 17 21 19 15 16 24 27 26 26 21 25
25 8 10 9 9 10 12 8 8 6 13 7 2 1 5 8 5 9 5 10 11 13 12 15 13 20 18 20 17 22 20 15 19 15 18 21 21 19 21 23 29 28 19 12 24
18 13 14 6 7 7 7 9 6 12 16 9 9 8 10 10 4 12 6 13 16 13 9 11 18 20 8 19 17 22 20 22 24 22 17 17 17 25 20 23 20 25 24 12 30
16 14 4 9 5 9 7 10 7 13 10 8 8 9 11 11 9 5 8 8 5 8 7 10 17 20 18 12 13 18 20 20 16 22 23 19 23 15 21 19 20 20 25 26 19
6 5 9 8 5 7 7 5 9 9 9 9 11 11 12 13 14 13 9 10 5 10 1 10 13 22 20 17 18 16 17 21 15 16 17 17 16 17 21 23 19 21 19 25 25
9 3 11 6 7 2 9 7 2 9 6 5 4 5 6 10 13 15 14 14 13 10 14 10 12 16 19 23 15 16 18 22 14 19 16 18 17 12 17 23 19 15 17 16 26
5 3 8 14 4 5 3 6 7 10 9 11 8 9 10 10 8 8 11 13 13 10 6 11 12 11 17 18 22 15 23 23 22 21 19 16 18 18 13 7 18 16 15 13 12
5 2 4 6 9 9 3 7 5 7 9 8 6 8 7 10 8 7 9 7 3 5 10 11 13 16 15 15 15 14 20 20 24 16 18 19 19 20 12 21 10 8 8 11 9
4 7 5 8 10 9 11 10 10 8 10 7 2 5 6 6 12 12 10 10 12 8 8 8 16 19 22 27 20 21 19 15 22 21 21 19 21 15 20 18 19 20 4 9 6
6 4 7 6 4 6 5 6 7 9 5 6 6 10 9 4 8 15 14 13 9 10 7 8 10 18 20 22 21 23 21 20 22 29 22 23 20 17 17 19 18 17 24 11 15
5 2 3 5 6 5 6 8 6 4 7 2 7 8 9 10 10 13 14 15 17 11 13 6 5 8 17 18 20 22 24 19 18 18 13 18 20 17 8 14 13 15 15 18 12
Wind_Direction
360 358 354 352 349 346 344 344 339 325 312 308 312 317 317 314 308 258 243 198 236 226 217 208 212 217 211 238 229 242 277 294 311 61 318 268 183 137 151 121 135 125 144 152 160
358 356 352 351 348 345 345 346 341 330 318 312 311 313 310 307 279 257 237 243 211 213 204 209 202 212 215 228 233 247 260 328 5 121 228 266 270 21 147 126 141 132 130 151 164
355 353 350 348 347 343 340 338 331 321 314 307 307 309 308 328 279 309 211 222 238 223 218 222 204 207 220 223 228 235 246 228 278 262 180 198 244 149 174 147 163 131 145 156 156
353 351 349 347 344 341 335 334 328 320 311 299 295 297 302 256 332 121 309 229 223 214 222 247 219 208 222 227 234 241 257 236 262 313 330 359 144 323 101 139 252 147 157 159 152
349 349 347 345 343 339 333 333 330 325 315 300 286 283 264 222 250 119 18 191 204 201 216 230 216 211 221 234 233 250 246 279 184 223 255 216 106 114 152 171 204 146 159 163 159
347 346 346 345 342 338 331 333 331 331 329 302 279 264 242 249 60 239 229 192 197 197 215 234 214 220 229 243 251 241 237 258 261 250 197 269 167 163 188 161 178 140 157 168 162
345 344 342 342 342 335 331 331 325 319 325 291 278 213 252 278 304 275 226 206 201 199 212 231 229 233 234 242 267 273 265 267 251 265 196 206 246 350 120 160 139 151 162 172 178
344 342 340 340 339 334 326 327 312 305 326 321 235 228 280 346 264 240 207 204 190 202 215 222 232 245 241 256 265 263 250 257 246 230 247 205 216 71 95 270 143 159 165 175 178
343 339 338 338 336 329 320 323 306 287 291 276 258 223 245 164 215 188 224 196 194 194 217 237 221 242 243 252 255 229 242 236 250 220 231 207 158 108 61 7 157 166 170 173 175
341 337 336 335 334 322 314 318 288 282 278 245 260 260 233 190 74 270 208 252 194 196 205 233 216 228 228 230 227 233 227 244 235 243 197 232 163 132 127 251 280 160 179 175 173
339 335 334 331 329 312 315 320 214 203 234 264 253 257 114 64 226 224 173 216 196 184 208 206 213 217 226 231 238 265 273 234 239 231 234 206 163 149 171 213 224 229 177 184 175
336 334 332 329 320 292 296 289 31 328 295 231 255 262 284 296 216 153 196 205 191 205 212 207 227 227 232 237 232 248 266 274 260 246 219 210 190 160 138 343 256 258 173 191 183
334 334 330 325 311 278 260 4 322 310 265 238 203 237 187 229 255 121 230 221 220 223 216 227 225 217 238 239 244 232 249 260 270 275 255 224 203 156 189 183 246 257 173 188 184
335 333 328 323 301 273 229 337 320 313 268 157 181 210 200 243 241 109 272 292 233 247 221 236 233 261 209 239 240 244 243 250 268 269 261 213 252 190 185 183 204 230 173 182 189
336 331 321 295 302 298 344 320 317 237 271 156 116 96 146 228 104 173 191 268 258 249 240 249 238 233 253 239 231 253 255 256 250 265 267 262 223 244 189 185 153 250 232 183 183
336 328 310 253 242 288 315 310 255 235 232 130 121 178 192 209 216 121 219 219 309 290 283 273 280 254 244 254 248 250 250 264 262 241 249 248 254 232 216 179 175 168 253 193 180
336 315 268 286 304 323 314 276 229 247 152 141 199 163 232 204 188 223 241 213 236 223 234 236 246 262 264 258 241 230 242 232 239 241 240 234 243 242 254 177 177 189 216 210 178
333 264 265 259 296 306 293 253 256 333 73 74 335 351 276 308 210 240 230 267 260 268 289 285 253 213 223 237 246 232 222 230 229 233 239 231 238 230 247 264 190 184 199 202 249
332 274 244 248 308 291 265 234 10 11 13 16 334 261 263 244 181 310 292 290 282 345 253 279 261 276 284 216 219 247 231 234 255 257 249 249 219 243 240 241 246 172 166 190 258
326 295 132 327 305 259 246 263 87 37 8 340 315 318 309 305 179 220 252 315 317 39 336 306 307 292 294 220 243 231 254 228 231 250 258 255 249 234 215 229 235 239 186 174 192
277 234 46 345 249 242 262 60 40 47 12 352 342 319 318 313 312 306 298 295 13 297 170 293 286 281 292 276 217 221 245 257 271 237 253 258 259 259 207 204 208 227 240 178 191
290 306 6 320 257 276 44 19 318 24 21 343 298 297 304 319 300 296 287 311 26 330 310 279 288 285 269 272 262 247 258 242 246 240 265 250 253 24 341 187 194 216 229 217 183
282 35 26 325 319 49 91 94 50 9 16 13 334 14 340 315 316 294 304 320 13 356 352 313 263 271 259 272 269 231 234 254 249 250 251 234 246 266 331 213 184 199 239 230 213
285 335 80 47 17 353 342 58 51 66 63 350 326 321 340 310 264 262 279 283 24 292 348 317 274 275 276 257 341 290 239 251 249 243 243 249 244 243 14 0 25 7 221 242 225
328 49 338 6 32 40 11 7 41 6 1 8 203 14 359 324 331 299 328 323 303 309 295 253 263 266 273 286 294 285 285 286 257 250 248 244 244 254 24 348 330 358 337 358 322
348 344 89 52 67 60 60 42 20 356 334 6 347 349 336 312 300 309 300 298 302 293 224 302 283 272 259 271 286 274 264 263 278 242 248 260 285 299 75 309 299 346 347 35 9
29 342 295 135 27 30 36 17 354 340 298 26 347 341 315 339 317 300 294 281 264 248 267 247 261 281 260 267 282 260 254 245 261 272 272 260 269 292 316 275 322 316 330 323 352